Carolina, PR

12:27 AM AST on February 24, 2017 (GMT -0400)
Luis Munoz Marin International

Weather History for TJSJ - April, 2013

Change the Weather History Date:

Friday, April 19, 2013

  Actual Average Record
Temperature  
Mean Temperature 81 °F 80 °F  
Max Temperature 86 °F 86 °F 92 °F (1997)
Min Temperature 75 °F 75 °F 66 °F (1961)
Degree Days  
Heating Degree Days 0 0  
Month to date heating degree days 0 0  
Since 1 July heating degree days 0 0  
Cooling Degree Days 16 15  
Month to date cooling degree days 321 285  
Year to date cooling degree days 1572 1467  
Growing Degree Days 30 (Base 50)    
Moisture  
Dew Point 68 °F    
Average Humidity 69    
Maximum Humidity 82    
Minimum Humidity 55    
Precipitation  
Precipitation 0.09 in 0.17 in 2.88 in (1916)
Month to date precipitation 2.90 2.61  
Year to date precipitation 8.94 10.71  
Sea Level Pressure  
Sea Level Pressure 30.05 in    
Wind  
Wind Speed 18 mph (East)    
Max Wind Speed 25 mph    
Max Gust Speed 33 mph    
Visibility 10 miles    
Events Rain    
T = Trace of Precipitation, MM = Missing Value Source: NWS Daily Summary

Daily Weather History Graph

Daily Weather History Graph

Search for Another Location

Airport or City:

Trip Planner

Search our weather history database for the weather conditions in past years. The results will help you decide how hot, cold, wet, or windy it might be!

Date:

Astronomy

Apr. 19, 2013 Rise Set
Actual Time 6:04 AM AST 6:42 PM AST
Civil Twilight 5:41 AM AST 7:04 PM AST
Nautical Twilight 5:15 AM AST 7:30 PM AST
Astronomical Twilight 4:49 AM AST 7:57 PM AST
Moon 1:12 PM AST (4/19) 1:24 AM AST (4/19)
Length of Visible Light 13h 22m
Length of Day
12h 37m
First Quarter, 61% of the Moon is Illuminated
Apr 19
First Quarter
Apr 25
Full
May 2
Last Quarter
May 9
New
May 18
First Quarter

Hourly Weather History & Observations

Time (AST) Temp. Heat Index Dew Point Humidity Pressure Visibility Wind Dir Wind Speed Gust Speed Precip Events Conditions
12:56 AM 78.1 °F - 69.1 °F 74% 30.05 in 10.0 mi East 15.0 mph 25.3 mph N/A   Mostly Cloudy
1:56 AM 78.1 °F - 68.0 °F 71% 30.02 in 10.0 mi ENE 15.0 mph - N/A   Mostly Cloudy
2:56 AM 78.1 °F - 68.0 °F 71% 30.01 in 10.0 mi ENE 15.0 mph - N/A   Mostly Cloudy
3:56 AM 75.9 °F - 69.1 °F 79% 30.00 in 10.0 mi SE 3.5 mph - N/A   Mostly Cloudy
4:56 AM 78.1 °F - 69.1 °F 74% 30.01 in 10.0 mi East 18.4 mph - N/A   Mostly Cloudy
5:56 AM 78.1 °F - 66.9 °F 68% 30.03 in 10.0 mi East 16.1 mph 24.2 mph 0.00 in   Mostly Cloudy
6:56 AM 79.0 °F - 68.0 °F 69% 30.05 in 10.0 mi East 21.9 mph 27.6 mph N/A   Scattered Clouds
7:56 AM 80.1 °F 82.9 °F 69.1 °F 69% 30.06 in 10.0 mi ENE 20.7 mph 27.6 mph N/A   Scattered Clouds
8:56 AM 82.0 °F 84.9 °F 68.0 °F 62% 30.08 in 10.0 mi ENE 21.9 mph 29.9 mph N/A   Scattered Clouds
9:56 AM 84.0 °F 86.5 °F 66.9 °F 56% 30.06 in 10.0 mi ENE 19.6 mph 29.9 mph N/A   Scattered Clouds
10:56 AM 82.9 °F 86.5 °F 69.1 °F 63% 30.08 in 10.0 mi East 24.2 mph 32.2 mph N/A   Scattered Clouds
11:56 AM 84.0 °F 87.0 °F 68.0 °F 58% 30.07 in 10.0 mi ENE 24.2 mph 32.2 mph N/A   Scattered Clouds
12:56 PM 84.0 °F 87.0 °F 68.0 °F 58% 30.06 in 10.0 mi ENE 21.9 mph 29.9 mph N/A   Scattered Clouds
1:56 PM 84.9 °F 88.2 °F 68.0 °F 57% 30.04 in 10.0 mi East 20.7 mph 28.8 mph N/A   Scattered Clouds
2:56 PM 82.9 °F 85.8 °F 68.0 °F 60% 30.03 in 10.0 mi ENE 23.0 mph 29.9 mph N/A   Mostly Cloudy
3:56 PM 82.0 °F 84.9 °F 68.0 °F 62% 30.03 in 9.0 mi East 16.1 mph 26.5 mph N/A   Scattered Clouds
4:56 PM 82.9 °F 85.8 °F 68.0 °F 60% 30.04 in 9.0 mi East 18.4 mph 27.6 mph N/A   Scattered Clouds
5:56 PM 80.1 °F 82.7 °F 68.0 °F 67% 30.04 in 9.0 mi East 20.7 mph 27.6 mph N/A   Mostly Cloudy
6:56 PM 79.0 °F - 68.0 °F 69% 30.06 in 9.0 mi East 17.3 mph 25.3 mph N/A   Scattered Clouds
7:56 PM 79.0 °F - 68.0 °F 69% 30.07 in 10.0 mi East 17.3 mph 24.2 mph N/A   Scattered Clouds
8:56 PM 79.0 °F - 68.0 °F 69% 30.09 in 10.0 mi East 21.9 mph 26.5 mph N/A   Scattered Clouds
9:56 PM 75.9 °F - 71.1 °F 85% 30.09 in 6.0 mi ESE 9.2 mph 19.6 mph 0.06 in Rain Light Rain
10:56 PM 75.9 °F - 71.1 °F 85% 30.10 in 10.0 mi East 9.2 mph - 0.03 in   Scattered Clouds
11:56 PM 75.9 °F - 70.0 °F 82% 30.08 in 10.0 mi East 12.7 mph - N/A   Scattered Clouds